This is the latest recevied weather packets stored in our database for station/object KQ4NAL. If no packets are shown the sender has not sent any weather packets the latest 1 day(s).
| Time | Temp. | Humidity | Pressure | Rain* | Wind** | Luminosity | Snow |
|---|---|---|---|---|---|---|---|
| 1777996158 | 20° C | 68% | 1010.7 hPa | 0 mm | 2.24 m/s, 190° | 383 W/m² | - |
| 1777995854 | 20° C | 67% | 1010.7 hPa | 0 mm | 2.24 m/s, 206° | 392 W/m² | - |
| 1777995550 | 20° C | 67% | 1010.5 hPa | 0 mm | 2.24 m/s, 197° | 395 W/m² | - |
| 1777995247 | 19.44° C | 66% | 1010.6 hPa | 0 mm | 3.13 m/s, 204° | 383 W/m² | - |
| 1777994945 | 19.44° C | 67% | 1010.6 hPa | 0 mm | 3.13 m/s, 187° | 358 W/m² | - |
| 1777994642 | 19.44° C | 68% | 1010.5 hPa | 0 mm | 1.79 m/s, 217° | 331 W/m² | - |
| 1777994341 | 19.44° C | 68% | 1010.5 hPa | 0 mm | 2.24 m/s, 192° | 313 W/m² | - |
| 1777994038 | 18.89° C | 68% | 1010.5 hPa | 0 mm | 3.13 m/s, 200° | 297 W/m² | - |
| 1777993735 | 19.44° C | 69% | 1010.3 hPa | 0 mm | 3.13 m/s, 202° | 288 W/m² | - |
| 1777993433 | 18.89° C | 70% | 1010.6 hPa | 0 mm | 1.34 m/s, 226° | 263 W/m² | - |
| 1777993132 | 18.89° C | 70% | 1010.5 hPa | 0 mm | 2.24 m/s, 252° | 241 W/m² | - |
| 1777992830 | 18.89° C | 70% | 1010.5 hPa | 0 mm | 4.02 m/s, 190° | 212 W/m² | - |
| 1777992528 | 18.89° C | 70% | 1010.5 hPa | 0 mm | 3.13 m/s, 189° | 205 W/m² | - |
| 1777992227 | 18.89° C | 71% | 1010.5 hPa | 0 mm | 4.02 m/s, 199° | 224 W/m² | - |
| 1777991923 | 18.89° C | 72% | 1010.2 hPa | 0 mm | 2.24 m/s, 206° | 223 W/m² | - |
| 1777991621 | 18.89° C | 72% | 1010.2 hPa | 0 mm | 3.13 m/s, 177° | 225 W/m² | - |
| 1777991318 | 18.89° C | 72% | 1010 hPa | 0 mm | 2.68 m/s, 226° | 215 W/m² | - |
| 1777991015 | 18.89° C | 72% | 1010.1 hPa | 0 mm | 2.24 m/s, 144° | 289 W/m² | - |
| 1777990712 | 18.89° C | 72% | 1010.1 hPa | 0 mm | 3.13 m/s, 146° | 344 W/m² | - |
| 1777990410 | 18.33° C | 73% | 1009.8 hPa | 0 mm | 1.79 m/s, 157° | 312 W/m² | - |
| 1777990106 | 18.33° C | 73% | 1009.9 hPa | 0 mm | 3.58 m/s, 193° | 249 W/m² | - |
| 1777989802 | 18.33° C | 74% | 1009.8 hPa | 0 mm | 2.24 m/s, 156° | 230 W/m² | - |
| 1777989500 | 18.33° C | 75% | 1009.5 hPa | 0 mm | 1.79 m/s, 170° | 201 W/m² | - |
| 1777989196 | 18.33° C | 75% | 1010 hPa | 0 mm | 2.24 m/s, 198° | 221 W/m² | - |
| 1777988892 | 17.78° C | 76% | 1009.8 hPa | 0 mm | 2.68 m/s, 211° | 251 W/m² | - |
* Rain latest hour (hover to see other rain measurements)
** Current wind speed in m/s (hover to see current wind gust speed)